| time (UTC) | temp F | wind direction | speed MPH | gust MPH | rain 1hr in | rain 24hr in | rain mn in | humidity % | barometer mb |
| 20260905094536 | 52 | 112 | 0.0 | 0.0 | 0.00 | 0.04 | 0.00 | 96 | 1019.5 |
| 20260905093036 | 52 | 112 | 0.0 | 0.0 | 0.00 | 0.04 | 0.00 | 95 | 1019.4 |
| 20260905091536 | 52 | 112 | 0.0 | 0.0 | 0.00 | 0.04 | 0.00 | 95 | 1019.3 |
| 20260905084536 | 53 | 90 | 0.0 | 2.0 | 0.00 | 0.04 | 0.00 | 95 | 1019.2 |
| 20260905083035 | 53 | 90 | 0.0 | 0.0 | 0.00 | 0.04 | 0.00 | 95 | 1019.1 |
| 20260905081539 | 53 | 90 | 0.0 | 0.0 | 0.00 | 0.04 | 0.00 | 95 | 1019.1 |
| 20260905080037 | 53 | 90 | 0.0 | 0.0 | 0.00 | 0.04 | 0.00 | 95 | 1019.0 |
| 20260905073031 | 54 | 180 | 0.0 | 3.0 | 0.01 | 0.04 | 0.00 | 95 | 1018.8 |
| 20260905071532 | 54 | 156 | 1.0 | 3.0 | 0.01 | 0.04 | 0.00 | 94 | 1018.6 |
| 20260905070029 | 54 | 31 | 0.0 | 2.0 | 0.02 | 0.04 | 0.00 | 94 | 1018.5 |
| 20260905063030 | 54 | 93 | 1.0 | 4.0 | 0.01 | 0.03 | 0.03 | 94 | 1018.3 |
| 20260905061531 | 54 | 252 | 0.0 | 2.0 | 0.01 | 0.03 | 0.02 | 94 | 1018.2 |
| 20260905060032 | 54 | 247 | 0.0 | 0.0 | 0.00 | 0.02 | 0.02 | 94 | 1018.3 |
| 20260905054531 | 54 | 247 | 0.0 | 0.0 | 0.00 | 0.02 | 0.02 | 93 | 1018.2 |
| 20260905053030 | 54 | 226 | 0.0 | 0.0 | 0.00 | 0.02 | 0.02 | 93 | 1018.0 |
| 20260905051532 | 54 | 180 | 0.0 | 0.0 | 0.00 | 0.02 | 0.02 | 93 | 1018.2 |
| 20260905050029 | 53 | 180 | 0.0 | 3.0 | 0.00 | 0.02 | 0.02 | 93 | 1018.1 |
| 20260905044531 | 53 | 180 | 0.0 | 1.0 | 0.00 | 0.02 | 0.02 | 92 | 1018.0 |
| 20260905043045 | 53 | 180 | 0.0 | 1.0 | 0.00 | 0.02 | 0.02 | 92 | 1017.9 |
| 20260905041530 | 54 | 180 | 0.0 | 2.0 | 0.00 | 0.02 | 0.02 | 91 | 1017.9 |
| 20260905040030 | 54 | 180 | 0.0 | 2.0 | 0.00 | 0.02 | 0.02 | 91 | 1017.7 |
| 20260905034532 | 55 | 180 | 0.0 | 2.0 | 0.00 | 0.02 | 0.02 | 90 | 1017.6 |
| 20260905033107 | 55 | 180 | 0.0 | 2.0 | 0.00 | 0.02 | 0.02 | 89 | 1017.3 |
| 20260905031535 | 56 | 180 | 0.0 | 2.0 | 0.00 | 0.02 | 0.02 | 89 | 1017.2 |
| 20260905030105 | 56 | 180 | 0.0 | 0.0 | 0.00 | 0.02 | 0.02 | 88 | 1017.1 |
| 20260905024536 | 57 | 161 | 0.0 | 3.0 | 0.00 | 0.02 | 0.02 | 87 | 1017.0 |
| 20260905023031 | 57 | 90 | 0.0 | 1.0 | 0.00 | 0.02 | 0.02 | 85 | 1017.0 |
| 20260905020031 | 59 | 66 | 0.0 | 2.0 | 0.00 | 0.02 | 0.02 | 79 | 1016.8 |
| 20260905014531 | 62 | 12 | 1.0 | 4.0 | 0.00 | 0.02 | 0.02 | 74 | 1016.6 |
| 20260905013029 | 64 | 332 | 0.0 | 4.0 | 0.00 | 0.02 | 0.02 | 70 | 1016.3 |
| 20260905011535 | 64 | 320 | 2.0 | 4.0 | 0.00 | 0.02 | 0.02 | 70 | 1016.2 |
| 20260905010030 | 65 | 319 | 2.0 | 6.0 | 0.00 | 0.02 | 0.02 | 69 | 1016.2 |
| 20260905004536 | 65 | 359 | 2.0 | 5.0 | 0.00 | 0.02 | 0.02 | 72 | 1016.1 |
| 20260905003148 | 64 | 3 | 1.0 | 4.0 | 0.00 | 0.02 | 0.02 | 74 | 1015.9 |
| 20260905001530 | 63 | 312 | 0.0 | 2.0 | 0.00 | 0.02 | 0.02 | 77 | 1016.0 |
| 20260905000031 | 63 | 246 | 0.0 | 4.0 | 0.00 | 0.02 | 0.02 | 76 | 1015.9 |
| 20260904234531 | 63 | 207 | 0.0 | 3.0 | 0.00 | 0.02 | 0.02 | 74 | 1015.9 |
| 20260904233029 | 63 | 215 | 2.0 | 4.0 | 0.00 | 0.02 | 0.02 | 74 | 1015.9 |
| 20260904231533 | 62 | 203 | 1.0 | 2.0 | 0.00 | 0.02 | 0.02 | 74 | 1016.0 |
| 20260904224531 | 63 | 202 | 1.0 | 4.0 | 0.00 | 0.02 | 0.02 | 69 | 1015.9 |
| 20260904221612 | 65 | 191 | 2.0 | 5.0 | 0.00 | 0.02 | 0.02 | 67 | 1015.6 |
| 20260904214533 | 64 | 179 | 0.0 | 3.0 | 0.00 | 0.02 | 0.02 | 71 | 1015.5 |
| 20260904213030 | 63 | 156 | 0.0 | 3.0 | 0.00 | 0.02 | 0.02 | 73 | 1015.5 |
| 20260904211534 | 63 | 174 | 0.0 | 2.0 | 0.00 | 0.02 | 0.02 | 72 | 1015.5 |
| 20260904210153 | 63 | 157 | 0.0 | 2.0 | 0.00 | 0.02 | 0.02 | 70 | 1015.4 |
| 20260904204532 | 64 | 269 | 0.0 | 3.0 | 0.00 | 0.02 | 0.02 | 68 | 1015.4 |
| 20260904203029 | 65 | 194 | 1.0 | 4.0 | 0.00 | 0.02 | 0.02 | 70 | 1015.5 |
| 20260904201533 | 63 | 161 | 0.0 | 3.0 | 0.00 | 0.02 | 0.02 | 71 | 1015.6 |
| 20260904200148 | 63 | 263 | 0.0 | 2.0 | 0.00 | 0.02 | 0.02 | 71 | 1015.7 |
| 20260904194530 | 62 | 337 | 0.0 | 1.0 | 0.00 | 0.02 | 0.02 | 72 | 1015.8 |
| 20260904190030 | 60 | 141 | 0.0 | 3.0 | 0.00 | 0.02 | 0.02 | 79 | 1016.2 |
| 20260904184529 | 59 | 180 | 0.0 | 0.0 | 0.00 | 0.02 | 0.02 | 81 | 1016.4 |
| 20260904181532 | 57 | 194 | 0.0 | 2.0 | 0.00 | 0.02 | 0.02 | 85 | 1016.3 |
| 20260904180051 | 56 | 225 | 0.0 | 0.0 | 0.00 | 0.02 | 0.02 | 86 | 1016.2 |
| 20260904174530 | 56 | 251 | 0.0 | 1.0 | 0.00 | 0.02 | 0.02 | 87 | 1016.3 |
| 20260904173036 | 56 | 270 | 0.0 | 1.0 | 0.00 | 0.02 | 0.02 | 87 | 1016.3 |
| 20260904171611 | 56 | 267 | 0.0 | 3.0 | 0.00 | 0.02 | 0.02 | 88 | 1016.3 |
| 20260904170034 | 56 | 270 | 1.0 | 4.0 | 0.00 | 0.02 | 0.02 | 89 | 1016.1 |
| 20260904163108 | 54 | 211 | 0.0 | 2.0 | 0.00 | 0.02 | 0.02 | 93 | 1016.1 |
| 20260904161610 | 54 | 180 | 0.0 | 0.0 | 0.00 | 0.02 | 0.02 | 95 | 1016.2 |
| 20260904160028 | 53 | 180 | 0.0 | 0.0 | 0.00 | 0.02 | 0.02 | 96 | 1016.2 |
| 20260904153029 | 52 | 225 | 0.0 | 0.0 | 0.00 | 0.02 | 0.02 | 97 | 1016.0 |
| 20260904151533 | 51 | 225 | 0.0 | 0.0 | 0.00 | 0.02 | 0.02 | 97 | 1015.9 |
| 20260904150106 | 51 | 225 | 0.0 | 0.0 | 0.00 | 0.02 | 0.02 | 97 | 1015.9 |
| 20260904143104 | 50 | 225 | 0.0 | 0.0 | 0.00 | 0.02 | 0.02 | 97 | 1015.7 |
| 20260904141531 | 50 | 225 | 0.0 | 0.0 | 0.00 | 0.02 | 0.02 | 97 | 1015.5 |
| 20260904140033 | 49 | 225 | 0.0 | 0.0 | 0.01 | 0.02 | 0.02 | 96 | 1015.2 |
| 20260904133032 | 49 | 225 | 0.0 | 0.0 | 0.01 | 0.02 | 0.02 | 96 | 1015.1 |
| 20260904131532 | 49 | 219 | 0.0 | 0.0 | 0.01 | 0.02 | 0.01 | 96 | 1014.9 |
| 20260904130029 | 49 | 202 | 0.0 | 0.0 | 0.00 | 0.01 | 0.01 | 96 | 1014.8 |
| 20260904124531 | 49 | 202 | 0.0 | 0.0 | 0.00 | 0.01 | 0.01 | 96 | 1014.7 |
| 20260904123028 | 49 | 202 | 0.0 | 0.0 | 0.00 | 0.01 | 0.01 | 96 | 1014.7 |
| 20260904121531 | 50 | 202 | 0.0 | 0.0 | 0.00 | 0.01 | 0.01 | 96 | 1014.6 |
| 20260904120033 | 50 | 202 | 0.0 | 0.0 | 0.00 | 0.01 | 0.01 | 96 | 1014.5 |
| 20260904114531 | 50 | 202 | 0.0 | 0.0 | 0.00 | 0.01 | 0.01 | 96 | 1014.3 |
| 20260904113031 | 50 | 202 | 0.0 | 0.0 | 0.00 | 0.01 | 0.01 | 96 | 1014.2 |
| 20260904111606 | 50 | 202 | 0.0 | 0.0 | 0.01 | 0.01 | 0.01 | 96 | 1014.1 |
| 20260904110029 | 50 | 202 | 0.0 | 0.0 | 0.01 | 0.01 | 0.01 | 96 | 1014.0 |
| 20260904104531 | 50 | 202 | 0.0 | 1.0 | 0.01 | 0.01 | 0.01 | 96 | 1014.0 |
| 20260904103030 | 50 | 202 | 0.0 | 0.0 | 0.01 | 0.01 | 0.00 | 96 | 1013.8 |
| 20260904101531 | 50 | 202 | 0.0 | 1.0 | 0.00 | 0.00 | 0.00 | 96 | 1013.7 |
| 20260904100036 | 49 | 210 | 0.0 | 2.0 | 0.00 | 0.00 | 0.00 | 96 | 1013.5 |